sat.trackr.live / text

‹ back to catalog

STARLINK-6271

NORAD 56397 · 2023-061Z

PAYLOAD ACTIVE UNKNOWN

§ Identity

Operator
Country
US
Launch date
2023-05-04
Launch site
AFETR
Launch vehicle
Mass (kg)
RCS (m²)

Purposes: comms

External: N2YO · Heavens-Above · Gunter

§ Orbital elements

Epoch: 2026-09-19T23:16:44.135328Z

Period
94.27 min
Inclination
43.0001°
Eccentricity
0.0000924
Mean motion
15.27573981 rev/d
Perigee alt
482.4 km
Apogee alt
483.7 km
Semi-major
6,861.2 km
B*
-8.2662e-8
RAAN
170.1540°
Arg perigee
235.3279°
Mean anomaly
124.7486°
Rev number
18,658

§ Raw data

STARLINK-62711 56397U 23061Z   26262.96995527 -.00000264  00000+0 -82662-7 0  99962 56397  43.0001 170.1540 0000924 235.3279 124.7486 15.27573981186582

JSON: /api/v1/satellites/56397 · /tle

For live sub-satellite position, see the globe view (requires WebGL).

§ Visibility from observer

Set your observer location to see the next 7 days of passes ≥ 10°. The values pass through the URL so the page stays shareable.

No JS? Fill the form by hand. The geolocation button needs JavaScript.